[[{"header":{"parameterUnit":"m.s-1","parameterCategory":1,"la1":30.2992,"la2":30.254,"lo1":-89.0895,"lo2":-89.0443,"dy":0.0025,"dx":0.0025,"nx":19,"ny":19,"refTime":"2026-03-09T09:00:00:Z","depth":0,"parameterNumber":2,"parameterNumberName":"U-component_of_WINDS"},"data":[0,0,0,-1.142,-1.142,-1.1444,-1.1444,-1.1477,-1.1477,0,0,0,0,0,0,0,0,0,0,0,-1.1415,-1.1415,-1.142,-1.142,-1.1444,-1.1444,-1.1477,-1.1477,0,0,0,0,0,0,0,0,0,0,0,-1.1414,-1.1415,-1.1415,-1.1421,-1.1444,-1.1444,-1.1476,-1.1458,0,0,0,0,0,0,0,0,0,0,-1.1435,-1.1431,-1.1415,-1.1415,-1.1421,-1.1444,-1.1444,-1.1457,-1.1459,-1.1467,0,-1.1474,0,-1.1476,-1.1479,-1.1479,0,0,0,-1.142,-1.143,-1.1434,-1.1415,-1.1421,-1.1444,-1.1433,-1.1458,-1.1461,-1.147,-1.1475,-1.1476,-1.1477,-1.1479,-1.148,-1.1527,-1.1528,0,0,-1.1418,-1.142,-1.1433,-1.1436,-1.1432,-1.1432,-1.1434,-1.146,-1.1465,-1.1475,-1.1477,-1.1477,-1.148,-1.148,-1.1527,-1.1527,0,0,0,-1.1415,-1.1419,-1.1423,-1.1435,-1.1439,-1.1433,-1.1435,-1.1464,-1.1465,-1.1477,-1.1478,-1.148,-1.148,-1.1527,-1.1527,-1.1541,0,0,0,-1.1414,-1.1417,-1.1422,-1.1424,-1.1438,-1.1452,-1.1439,-1.1463,-1.1466,-1.1477,-1.148,-1.1481,-1.1526,-1.1527,-1.154,-1.1548,0,0,0,-1.1413,-1.1417,-1.1421,-1.1424,-1.1433,-1.1451,-1.1454,-1.1464,-1.1467,-1.1479,-1.1481,-1.1526,-1.1527,-1.1539,-1.1546,-1.156,0,0,0,-1.1411,-1.1433,-1.1421,-1.1446,-1.1433,-1.1459,-1.1453,-1.1473,-1.1485,-1.148,-1.1527,-1.1527,-1.1539,-1.1545,-1.1559,-1.1572,-1.1578,0,0,-1.144,-1.1437,-1.1451,-1.1441,-1.1469,-1.1455,-1.1486,-1.1497,-1.1497,-1.1517,-1.1519,-1.154,-1.1546,-1.156,-1.1608,-1.1612,0,0,0,-1.1461,-1.1471,-1.1479,-1.149,-1.1498,-1.1505,-1.1511,-1.1515,-1.1532,-1.1508,-1.1549,-1.1552,-1.1561,-1.1567,-1.1571,-1.1577,-1.153,-1.153,-1.153,-1.1505,-1.1503,-1.1526,-1.1527,-1.1538,-1.1543,-1.1552,-1.1558,-1.1554,-1.1564,-1.157,-1.1599,-1.1606,-1.1609,-1.1616,-1.1576,-1.1577,-1.1577,-1.1577,-1.1547,-1.1561,-1.1553,-1.1574,-1.1572,-1.1589,-1.1594,-1.159,-1.1606,-1.1595,-1.1602,-1.1589,-1.1614,-1.162,-1.1578,-1.1577,-1.1577,-1.1577,-1.1577,-1.1575,-1.1582,-1.1585,-1.16,-1.1612,-1.1613,-1.1628,-1.1626,-1.1624,-1.1631,-1.1637,-1.1637,-1.1636,-1.1634,-1.1634,-1.1634,-1.1634,-1.1634,-1.1634,-1.1604,-1.1607,-1.162,-1.1629,-1.1635,-1.1643,-1.1647,-1.1654,-1.166,-1.1658,-1.1658,-1.1653,-1.1616,-1.1607,-1.1636,-1.1635,-1.1635,-1.1635,-1.1635,-1.1648,-1.1637,-1.1657,-1.1663,-1.1673,-1.1685,-1.1681,-1.1694,-1.1699,-1.1707,-1.1699,-1.1673,-1.167,-1.1667,-1.166,-1.17,-1.17,-1.17,-1.17,-1.1673,-1.167,-1.1689,-1.1699,-1.1708,-1.1707,-1.1729,-1.1732,-1.1733,-1.1736,-1.173,-1.172,-1.1717,-1.1716,-1.1712,-1.1705,-1.1755,-1.1755,-1.1756,-1.17,-1.1698,-1.1717,-1.1717,-1.1724,-1.1731,-1.1751,-1.1763,-1.1763,-1.1758,-1.1739,-1.1736,-1.172,-1.1714,-1.171,-1.1704,-1.1691,0,0]},{"header":{"parameterUnit":"m.s-1","parameterCategory":1,"la1":30.2992,"la2":30.254,"lo1":-89.0895,"lo2":-89.0443,"dy":0.0025,"dx":0.0025,"nx":19,"ny":19,"refTime":"2026-03-09T09:00:00:Z","depth":0,"parameterNumber":3,"parameterNumberName":"V-component_of_WINDS"},"data":[0,0,0,1.0538,1.0538,1.0493,1.0493,1.0457,1.0457,0,0,0,0,0,0,0,0,0,0,0,1.0562,1.0562,1.0538,1.0538,1.0493,1.0493,1.0457,1.0457,0,0,0,0,0,0,0,0,0,0,0,1.0562,1.0562,1.0563,1.0537,1.0493,1.0493,1.0457,1.0484,0,0,0,0,0,0,0,0,0,0,1.0523,1.0555,1.0562,1.0563,1.0537,1.0493,1.0493,1.0484,1.0482,1.0485,0,1.049,0,1.0473,1.0455,1.0455,0,0,0,1.053,1.0558,1.0536,1.0563,1.0537,1.0493,1.0511,1.0483,1.048,1.0482,1.0489,1.0487,1.0472,1.0455,1.0455,1.0498,1.0499,0,0,1.0532,1.056,1.0538,1.0534,1.0541,1.0513,1.051,1.0481,1.0491,1.0489,1.0486,1.0472,1.0455,1.0455,1.0497,1.0498,0,0,0,1.0545,1.0563,1.0541,1.0536,1.0527,1.0511,1.0508,1.0492,1.0483,1.0485,1.0471,1.0455,1.0455,1.0497,1.0498,1.0552,0,0,0,1.0546,1.0569,1.0542,1.0559,1.0528,1.0508,1.0521,1.0485,1.048,1.0471,1.0455,1.0455,1.0496,1.0497,1.055,1.0574,0,0,0,1.0562,1.0571,1.0568,1.0561,1.0542,1.0508,1.0497,1.0483,1.0472,1.0455,1.0455,1.0496,1.0497,1.0547,1.057,1.0594,0,0,0,1.0587,1.0618,1.057,1.0599,1.0543,1.0542,1.0497,1.0495,1.0487,1.0455,1.0496,1.0498,1.0546,1.0567,1.0592,1.0621,1.0635,0,0,1.0641,1.0625,1.064,1.0596,1.061,1.0546,1.0569,1.0536,1.051,1.0504,1.0505,1.0551,1.0569,1.0594,1.0704,1.0716,0,0,0,1.0667,1.0678,1.0676,1.0669,1.0644,1.0625,1.0585,1.0573,1.0567,1.0512,1.0565,1.0575,1.0588,1.0601,1.0611,1.0621,1.0504,1.0504,1.0504,1.0785,1.0749,1.0771,1.073,1.0725,1.0683,1.0676,1.0653,1.0618,1.0632,1.063,1.0701,1.0717,1.0724,1.0735,1.0642,1.0642,1.0642,1.0642,1.0862,1.0873,1.0826,1.0832,1.0794,1.0799,1.0761,1.0737,1.0737,1.0699,1.0709,1.0672,1.0738,1.0746,1.0646,1.0645,1.0645,1.0644,1.0644,1.0937,1.0936,1.092,1.0907,1.0902,1.086,1.0862,1.0827,1.0795,1.0805,1.08,1.0799,1.0795,1.0805,1.0805,1.0805,1.0806,1.0806,1.0806,1.102,1.1,1.1006,1.0982,1.0974,1.0959,1.0919,1.0911,1.0893,1.0868,1.0868,1.0834,1.075,1.0731,1.081,1.0809,1.0808,1.0808,1.0808,1.1114,1.1088,1.1096,1.1088,1.1059,1.1057,1.1012,1.0999,1.0987,1.099,1.0953,1.0897,1.0878,1.087,1.0854,1.0959,1.0959,1.0959,1.096,1.1178,1.1165,1.1166,1.1156,1.1142,1.1103,1.1116,1.1086,1.1051,1.1042,1.1022,1.0997,1.099,1.0976,1.0966,1.095,1.1078,1.1078,1.1078,1.1235,1.1219,1.1236,1.12,1.1174,1.1154,1.1166,1.1158,1.1113,1.1082,1.1035,1.103,1.099,1.0978,1.0947,1.0932,1.0903,0,0]}]]